Latest Weather Observations for Dennes Point

IDT60801

Issued at 1:02 pm EDT Monday 27 February 2017 (issued every 30 minutes, with the page automatically refreshed every 10 minutes)

About weather observations | Map of weather stations | Latest weather observations for TAS | Other Formats
Station Details ID: 094255 Name: DENNES POINT Lat: -43.06 Lon: 147.36 Height: 5.67 m
Data from the previous 72 hours. | See also: Recent months at Dennes Point
Date/Time
EDT
Temp
°C
App
Temp
°C
Dew
Point
°C
Rel
Hum
%
Delta-T
°C
Wind Press
QNH
hPa
Press
MSL
hPa
Rain since
9am
mm
Dir  Spd
km/h
Gust
km/h
Spd
kts
Gust
kts
27/01:00pm 22.1 19.7 12.6 55 5.4 E 17 20 9 11 1024.7 1024.7 0.0
27/12:30pm 22.1 21.1 10.9 49 6.1 NE 7 7 4 4 1025.0 1025.0 0.0
27/12:00pm 21.6 19.5 11.0 51 5.8 NNE 13 15 7 8 1025.4 1025.4 0.0
27/11:30am 20.9 19.5 12.1 57 4.9 NE 11 13 6 7 1025.7 1025.7 0.0
27/11:00am 19.4 18.3 10.7 57 4.7 NNE 7 9 4 5 1026.0 1026.0 0.0
27/10:30am 18.4 17.1 11.2 63 3.9 NNE 9 11 5 6 1026.2 1026.2 0.0
27/10:00am 17.0 15.4 11.5 70 3.0 NNE 11 15 6 8 1026.2 1026.2 0.0
27/09:30am 15.8 13.8 11.4 75 2.4 NNE 13 15 7 8 1026.2 1026.2 0.0
27/09:00am 15.4 12.6 11.4 77 2.1 NE 17 19 9 10 1026.3 1026.3 0.0
27/08:30am 14.9 12.5 11.3 79 1.9 NNE 15 17 8 9 1026.4 1026.4 0.0
27/08:00am 14.7 11.6 11.5 81 1.7 N 19 20 10 11 1026.2 1026.2 0.0
27/07:30am 14.1 13.4 12.1 88 1.1 NNE 7 17 4 9 1026.2 1026.2 0.0
27/07:00am 12.2 12.0 10.6 90 0.8 NE 2 6 1 3 1026.0 1026.0 0.0
27/06:30am 12.6 12.6 11.0 90 0.8 NE 2 4 1 2 1025.7 1025.7 0.0
27/06:00am 12.0 10.9 10.6 91 0.7 SSW 7 9 4 5 1025.6 1025.6 0.0
27/05:30am 12.8 13.0 10.5 86 1.2 CALM 0 0 0 0 1025.3 1025.3 0.0
27/05:00am 13.0 13.4 11.1 88 1.0 CALM 0 2 0 1 1025.2 1025.2 0.0
27/04:30am 11.9 11.1 9.6 86 1.2 SSW 4 6 2 3 1025.2 1025.2 0.0
27/04:00am 12.4 10.5 10.6 89 0.9 S 11 15 6 8 1025.3 1025.3 0.0
27/03:30am 12.6 10.7 10.5 87 1.1 SSW 11 13 6 7 1025.3 1025.3 0.0
27/03:00am 12.5 11.0 10.4 87 1.1 SSW 9 13 5 7 1025.4 1025.4 0.0
27/02:30am 12.6 10.4 10.7 88 1.0 SSW 13 15 7 8 1025.3 1025.3 0.0
27/02:00am 12.8 10.9 10.5 86 1.2 SSW 11 15 6 8 1025.4 1025.4 0.0
27/01:30am 12.8 10.5 10.5 86 1.2 SSW 13 15 7 8 1025.5 1025.5 0.0
27/01:00am 13.3 11.2 11.0 86 1.2 S 13 15 7 8 1025.4 1025.4 0.0
27/12:30am 13.8 12.1 11.1 84 1.4 S 11 13 6 7 1025.6 1025.6 0.0
27/12:00am 14.0 12.8 11.5 85 1.3 S 9 11 5 6 1025.8 1025.8 0.0
 
Date/Time
EDT
Temp
°C
App
Temp
°C
Dew
Point
°C
Rel
Hum
%
Delta-T
°C
Wind Press
QNH
hPa
Press
MSL
hPa
Rain since
9am
mm
Dir  Spd
km/h
Gust
km/h
Spd
kts
Gust
kts
26/11:30pm 14.1 13.3 11.8 86 1.2 SSW 7 9 4 5 1026.0 1026.0 0.0
26/11:00pm 14.4 13.2 11.6 83 1.5 SSW 9 11 5 6 1026.2 1026.2 0.0
26/10:30pm 14.7 13.5 11.7 82 1.6 SW 9 13 5 7 1026.2 1026.2 0.0
26/10:00pm 14.8 14.1 11.9 83 1.6 SW 7 11 4 6 1026.2 1026.2 0.0
26/09:30pm 14.7 14.0 11.5 81 1.7 SW 6 7 3 4 1026.1 1026.1 0.0
26/09:00pm 14.9 14.2 11.3 79 1.9 SW 6 7 3 4 1025.8 1025.8 0.0
26/08:30pm 15.9 16.0 11.5 75 2.4 SW 2 6 1 3 1025.5 1025.5 0.0
26/08:00pm 16.8 14.8 11.5 71 2.9 SW 13 17 7 9 1025.4 1025.4 0.0
26/07:30pm 17.9 17.1 11.0 64 3.7 SSE 6 7 3 4 1025.2 1025.2 0.0
26/07:00pm 19.2 17.9 11.3 60 4.3 SSE 9 15 5 8 1025.0 1025.0 0.0
26/06:30pm 19.8 18.7 10.5 55 5.0 SSE 7 9 4 5 1024.8 1024.8 0.0
26/06:00pm 19.4 17.8 11.7 61 4.2 ESE 11 13 6 7 1024.5 1024.5 0.0
26/05:30pm 19.5 18.4 11.8 61 4.3 SE 9 13 5 7 1024.3 1024.3 0.0
26/05:00pm 18.7 17.1 11.5 63 3.9 SE 11 17 6 9 1024.4 1024.4 0.0
26/04:30pm 19.5 16.9 12.0 62 4.2 ESE 17 22 9 12 1024.3 1024.3 0.0
26/04:00pm 18.9 15.4 12.2 65 3.7 ESE 22 28 12 15 1024.3 1024.3 0.0
26/03:30pm 19.2 15.5 11.5 61 4.2 ESE 22 28 12 15 1024.3 1024.3 0.0
26/03:00pm 20.2 16.6 10.6 54 5.2 ESE 20 24 11 13 1024.5 1024.5 0.0
26/02:30pm 21.0 17.7 9.6 48 6.1 ESE 17 24 9 13 1024.5 1024.5 0.0
26/02:00pm 20.0 16.9 9.0 49 5.8 ESE 15 20 8 11 1024.9 1024.9 0.0
26/01:30pm 19.8 16.5 9.4 51 5.5 ESE 17 19 9 10 1025.0 1025.0 0.0
26/01:00pm 19.1 16.5 10.6 58 4.6 ESE 15 19 8 10 1025.2 1025.2 0.0
26/12:30pm 18.1 15.7 10.2 60 4.2 ESE 13 17 7 9 1025.5 1025.5 0.0
26/12:00pm 18.1 16.0 8.1 52 5.1 E 9 13 5 7 1025.6 1025.6 0.0
26/11:30am 17.7 16.1 8.6 55 4.7 E 7 9 4 5 1025.8 1025.8 0.0
26/11:00am 16.8 15.4 9.0 60 4.0 ENE 6 7 3 4 1026.0 1026.0 0.0
26/10:30am 16.3 14.7 8.8 61 3.8 NE 7 7 4 4 1026.2 1026.2 0.0
26/10:00am 15.6 14.2 8.8 64 3.4 NE 6 7 3 4 1026.3 1026.3 0.0
26/09:30am 14.7 13.3 8.9 68 2.9 NE 6 6 3 3 1026.3 1026.3 0.0
26/09:00am 13.8 13.5 8.8 72 2.5 CALM 0 0 0 0 1026.1 1026.1 0.0
26/08:30am 12.7 12.1 9.0 78 1.9 SSW 2 6 1 3 1026.0 1026.0 0.0
26/08:00am 11.9 10.6 9.1 83 1.4 SW 6 7 3 4 1025.8 1025.8 0.0
26/07:30am 10.7 9.1 8.8 88 0.9 SW 7 9 4 5 1025.7 1025.7 0.0
26/07:00am 10.1 8.0 8.2 88 0.9 SSW 9 11 5 6 1025.4 1025.4 0.0
26/06:30am 9.6 7.1 8.4 92 0.6 SSW 11 13 6 7 1025.1 1025.1 0.0
26/06:00am 9.3 7.1 7.9 91 0.7 SSW 9 11 5 6 1024.8 1024.8 0.0
26/05:30am 9.9 8.2 8.5 91 0.7 SSW 7 9 4 5 1024.7 1024.7 0.0
26/05:00am 9.7 7.2 8.0 89 0.8 SW 11 13 6 7 1024.8 1024.8 0.0
26/04:30am 10.1 8.9 8.0 87 1.0 WSW 4 6 2 3 1024.3 1024.3 0.0
26/04:00am 9.9 7.3 7.7 86 1.0 SSW 11 13 6 7 1024.9 1024.9 0.0
26/03:30am 10.4 7.5 8.0 85 1.2 S 13 17 7 9 1025.2 1025.2 0.0
26/03:00am 9.8 7.9 7.4 85 1.1 SSW 7 9 4 5 1025.1 1025.1 0.0
26/02:30am 10.4 7.8 7.6 83 1.3 S 11 15 6 8 1026.2 1026.2 0.0
26/02:00am 10.9 8.4 8.0 82 1.4 S 11 13 6 7 1025.9 1025.9 0.0
26/01:30am 10.9 8.7 8.0 82 1.4 S 9 11 5 6 1026.2 1026.2 0.0
26/01:00am 11.2 9.4 7.9 80 1.6 SSW 7 7 4 4 1026.4 1026.4 0.0
26/12:30am 11.2 9.4 7.9 80 1.6 SSW 7 9 4 5 1026.7 1026.7 0.0
26/12:00am 11.4 9.5 7.5 77 1.9 SSW 7 7 4 4 1026.9 1026.9 0.0
 
Date/Time
EDT
Temp
°C
App
Temp
°C
Dew
Point
°C
Rel
Hum
%
Delta-T
°C
Wind Press
QNH
hPa
Press
MSL
hPa
Rain since
9am
mm
Dir  Spd
km/h
Gust
km/h
Spd
kts
Gust
kts
25/11:30pm 11.8 9.9 6.5 70 2.5 SSW 6 7 3 4 1026.9 1026.9 0.0
25/11:00pm 12.7 11.7 5.8 63 3.2 CALM 0 0 0 0 1027.0 1027.0 0.0
25/10:30pm 13.4 12.6 6.3 62 3.4 CALM 0 4 0 2 1027.5 1027.5 0.0
25/10:00pm 13.8 11.8 6.4 61 3.5 SSE 6 7 3 4 1027.7 1027.7 0.0
25/09:30pm 14.0 11.8 6.4 60 3.6 SSE 7 9 4 5 1027.6 1027.6 0.0
25/09:00pm 13.8 11.7 6.7 62 3.4 SE 7 11 4 6 1027.3 1027.3 0.0
25/08:30pm 13.3 11.1 6.4 63 3.3 SE 7 11 4 6 1026.8 1026.8 0.0
25/08:00pm 13.9 11.3 6.3 60 3.6 SE 9 15 5 8 1026.4 1026.4 0.0
25/07:30pm 14.3 11.0 6.2 58 3.9 ESE 13 17 7 9 1026.1 1026.1 0.0
25/07:00pm 15.0 11.4 6.8 58 4.0 ESE 15 20 8 11 1026.0 1026.0 0.0
25/06:30pm 15.4 11.8 6.7 56 4.2 ESE 15 22 8 12 1026.0 1026.0 0.0
25/06:00pm 15.8 11.9 7.1 56 4.3 ESE 17 24 9 13 1025.6 1025.6 0.0
25/05:30pm 16.4 12.1 7.1 54 4.6 ESE 19 28 10 15 1025.5 1025.5 0.0
25/05:00pm 16.6 12.2 6.4 51 5.0 ESE 19 24 10 13 1025.7 1025.7 0.0
25/04:30pm 16.8 12.5 6.9 52 4.9 ESE 19 22 10 12 1026.0 1026.0 0.0
25/04:00pm 17.0 12.5 6.2 49 5.2 ESE 19 26 10 14 1026.0 1026.0 0.0
25/03:30pm 17.1 12.6 6.3 49 5.3 ESE 19 24 10 13 1026.2 1026.2 0.0
25/03:00pm 17.1 12.8 7.2 52 4.9 E 19 24 10 13 1026.2 1026.2 0.0
25/02:30pm 17.1 12.8 6.9 51 5.1 E 19 24 10 13 1026.6 1026.6 0.0
25/02:00pm 17.7 13.5 7.4 51 5.2 E 19 24 10 13 1026.8 1026.8 0.0
25/01:30pm 17.4 13.3 6.0 47 5.6 E 17 20 9 11 1026.8 1026.8 0.0
25/01:00pm 17.8 13.9 7.0 49 5.4 E 17 22 9 12 1026.6 1026.6 0.0
25/12:30pm 17.8 14.0 5.7 45 5.9 ESE 15 22 8 12 1026.9 1026.9 0.0
25/12:00pm 17.4 14.4 4.0 41 6.2 WSW 9 15 5 8 1027.0 1027.0 0.0
25/11:30am 17.2 13.6 3.1 39 6.5 SW 11 20 6 11 1027.1 1027.1 0.0
25/11:00am 17.2 14.1 3.8 41 6.2 SSW 9 20 5 11 1027.2 1027.2 0.0
25/10:30am 16.7 13.8 4.4 44 5.8 WSW 9 15 5 8 1027.3 1027.3 0.0
25/10:00am 15.5 12.8 3.6 45 5.4 W 7 11 4 6 1027.2 1027.2 0.0
25/09:30am 15.1 11.1 3.0 44 5.5 SW 13 19 7 10 1027.3 1027.3 0.0
25/09:00am 14.2 11.2 4.2 51 4.6 SW 9 17 5 9 1027.3 1027.3 0.0
25/08:30am 13.5 8.6 4.9 56 4.0 W 20 26 11 14 1026.9 1026.9 0.0
25/08:00am 12.3 8.2 4.3 58 3.6 WSW 15 22 8 12 1026.9 1026.9 0.0
25/07:30am 11.7 6.9 4.4 61 3.3 W 19 22 10 12 1026.8 1026.8 0.0
25/07:00am 10.3 7.8 4.7 68 2.5 W 7 11 4 6 1026.8 1026.8 0.0
25/06:30am 10.2 7.7 3.9 65 2.8 SW 6 9 3 5 1026.6 1026.6 0.0
25/06:00am 10.9 7.5 4.1 63 3.0 WSW 11 13 6 7 1026.3 1026.3 0.0
25/05:30am 9.7 7.1 4.3 69 2.4 SW 7 11 4 6 1025.9 1025.9 0.0
25/05:00am 10.2 7.8 4.1 66 2.7 WSW 6 7 3 4 1025.7 1025.7 0.0
25/04:30am 10.6 7.9 5.4 70 2.4 W 9 11 5 6 1025.8 1025.8 0.0
25/04:00am 10.8 7.6 5.3 69 2.5 W 11 17 6 9 1025.7 1025.7 0.0
25/03:30am 11.0 7.5 5.5 69 2.5 W 13 19 7 10 1025.5 1025.5 0.0
25/03:00am 11.6 7.1 6.1 69 2.6 WNW 19 22 10 12 1025.3 1025.3 0.0
25/02:30am 11.5 8.1 6.0 69 2.6 WNW 13 20 7 11 1025.6 1025.6 0.0
25/02:00am 12.0 8.7 6.3 68 2.7 WNW 13 20 7 11 1025.7 1025.7 0.0
25/01:30am 12.2 8.1 6.3 67 2.8 SW 17 24 9 13 1025.5 1025.5 0.0
25/01:00am 12.2 7.6 6.3 67 2.8 SW 20 24 11 13 1025.5 1025.5 0.0
25/12:30am 11.6 9.0 6.3 70 2.5 SW 9 15 5 8 1025.5 1025.5 0.0
25/12:00am 12.1 9.2 6.6 69 2.6 WSW 11 19 6 10 1025.2 1025.2 0.0
 
Date/Time
EDT
Temp
°C
App
Temp
°C
Dew
Point
°C
Rel
Hum
%
Delta-T
°C
Wind Press
QNH
hPa
Press
MSL
hPa
Rain since
9am
mm
Dir  Spd
km/h
Gust
km/h
Spd
kts
Gust
kts
24/11:30pm 12.5 9.6 6.3 66 2.9 SW 11 17 6 9 1025.1 1025.1 0.0
24/11:00pm 12.9 8.9 5.1 59 3.6 SW 15 20 8 11 1025.0 1025.0 0.0
24/10:30pm 12.8 10.6 6.2 64 3.1 SSW 7 19 4 10 1025.1 1025.1 0.0
24/10:00pm 13.6 10.3 6.5 62 3.4 SW 13 19 7 10 1024.7 1024.7 0.0
24/09:30pm 13.4 10.2 6.7 64 3.2 SSW 13 20 7 11 1024.4 1024.4 0.0
24/09:00pm 13.6 11.3 7.4 66 3.0 S 9 15 5 8 1024.1 1024.1 0.0
24/08:30pm 13.7 10.7 7.5 66 3.0 S 13 22 7 12 1023.5 1023.5 0.0
24/08:00pm 14.0 11.3 7.5 65 3.2 SSE 11 17 6 9 1023.1 1023.1 0.0
24/07:30pm 15.4 11.5 6.9 57 4.2 WSW 17 20 9 11 1022.7 1022.7 0.0
24/07:00pm 16.4 13.7 7.3 55 4.5 SW 11 17 6 9 1022.5 1022.5 0.0
24/06:30pm 15.9 12.1 7.4 57 4.2 WSW 17 20 9 11 1022.2 1022.2 0.0
24/06:00pm 15.9 10.3 7.1 56 4.3 WSW 26 33 14 18 1022.0 1022.0 0.0
24/05:30pm 16.6 11.8 7.3 54 4.6 WSW 22 30 12 16 1021.6 1021.6 0.0
24/05:00pm 17.4 13.1 7.7 53 4.9 WSW 20 26 11 14 1021.3 1021.3 0.0
24/04:30pm 17.9 13.9 9.0 56 4.6 WSW 20 28 11 15 1020.9 1020.9 0.0
24/04:00pm 15.9 13.3 10.7 71 2.8 WSW 15 17 8 9 1021.1 1021.1 0.0
24/03:30pm 16.0 11.1 9.9 67 3.2 SW 26 35 14 19 1021.1 1021.1 0.0
24/03:00pm 19.0 14.6 7.4 47 5.9 WSW 20 33 11 18 1020.3 1020.3 0.0
24/02:30pm 19.8 14.8 8.2 47 6.0 W 24 35 13 19 1020.2 1020.2 0.0
24/02:03pm 20.5 14.0 8.8 47 6.2 WSW 33 52 18 28 1020.2 1020.2 0.0
24/02:00pm 19.4 12.8 8.7 50 5.6 WSW 33 52 18 28 1020.3 1020.3 0.0
24/01:56pm 18.2 11.9 7.6 50 5.4 WSW 30 48 16 26 1020.1 1020.1 0.0
24/01:30pm 18.8 15.5 7.9 49 5.6 WSW 15 28 8 15 1020.0 1019.9 0.0

Other Formats:

Comma delimited format used in spreadsheet applications
http://www.bom.gov.au/fwo/IDT60801/IDT60801.94988.axf

JavaScript Object Notation format (JSON) in row-major order
http://www.bom.gov.au/fwo/IDT60801/IDT60801.94988.json